Change the Weather History Date:

Wednesday, July 10, 2013

  Actual Average Record
Temperature  
Mean Temperature 83 °F 78 °F  
Max Temperature 89 °F 87 °F 104 °F (1936)
Min Temperature 77 °F 69 °F 53 °F (1963)
Degree Days  
Heating Degree Days 0 0  
Month to date heating degree days 0 0  
Since 1 June heating degree days 0 11  
Since 1 July heating degree days 0 0  
Cooling Degree Days 18 13  
Month to date cooling degree days 171 127  
Year to date cooling degree days 589 476  
Since 1 June cooling degree days 465 385  
Growing Degree Days 33 (Base 50)    
Moisture  
Dew Point 72 °F    
Average Humidity 69    
Maximum Humidity 85    
Minimum Humidity 52    
Precipitation  
Precipitation 0.05 in 0.14 in 2.99 in (1931)
Month to date precipitation 0.40 1.33  
Year to date precipitation 23.49 21.50  
Snow  
Snow 0.00 in 0.00 in 0.00 in (1870)
Month to date snowfall 0.0 0.0  
Since 1 June snowfall 0.0 0.0  
Since 1 July snowfall 0.0 0.0  
Snow Depth 0.00 in    
Sea Level Pressure  
Sea Level Pressure 29.94 in    
Wind  
Wind Speed 11 mph (SW)    
Max Wind Speed 24 mph    
Max Gust Speed 29 mph    
Visibility 9 miles    
Events Rain , Thunderstorm    
T = Trace of Precipitation, MM = Missing Value Source: NWS Daily Summary

Daily Weather History Graph

Daily Weather History Graph

Search for Another Location

Airport or City:

Trip Planner

Search our weather history database for the weather conditions in past years. The results will help you decide how hot, cold, wet, or windy it might be!

Date:

Astronomy

Jul. 10, 2013 Rise Set
Actual Time 5:41 AM EDT 8:30 PM EDT
Civil Twilight 5:09 AM EDT 9:02 PM EDT
Nautical Twilight 4:29 AM EDT 9:43 PM EDT
Astronomical Twilight 3:42 AM EDT 10:29 PM EDT
Moon 8:00 AM EDT (7/10) 9:39 PM EDT (7/10)
Length of Visible Light 15h 53m
Length of Day
14h 49m
Waxing Crescent, 5% of the Moon is Illuminated
Jul 10
Waxing Crescent
Jul 15
First Quarter
Jul 22
Full
Jul 29
Last Quarter
Aug 6
New

Hourly Weather History & Observations

Time (EDT) Temp. Heat Index Dew Point Humidity Pressure Visibility Wind Dir Wind Speed Gust Speed Precip Events Conditions
12:54 AM 79.0 °F - 71.1 °F 77% 30.02 in 8.0 mi SSE 3.5 mph - N/A   Overcast
1:54 AM 79.0 °F - 72.0 °F 79% 29.99 in 7.0 mi South 9.2 mph - N/A   Overcast
2:54 AM 78.1 °F - 72.0 °F 81% 29.99 in 7.0 mi SSW 5.8 mph - N/A   Mostly Cloudy
3:54 AM 77.0 °F - 72.0 °F 84% 29.98 in 7.0 mi SSW 6.9 mph - N/A   Overcast
4:54 AM 77.0 °F - 72.0 °F 84% 29.96 in 9.0 mi South 4.6 mph - N/A   Overcast
5:54 AM 77.0 °F - 72.0 °F 84% 29.98 in 8.0 mi South 5.8 mph - N/A   Overcast
6:54 AM 77.0 °F - 72.0 °F 84% 29.97 in 8.0 mi SSW 6.9 mph - N/A   Mostly Cloudy
7:36 AM 78.8 °F - 73.4 °F 83% 29.96 in 8.0 mi SSW 6.9 mph - N/A   Mostly Cloudy
7:54 AM 79.0 °F - 73.0 °F 82% 29.96 in 8.0 mi SSW 9.2 mph - N/A   Overcast
8:24 AM 80.6 °F 85.4 °F 73.4 °F 79% 29.96 in 8.0 mi SW 13.8 mph - N/A   Mostly Cloudy
8:54 AM 81.0 °F 85.8 °F 73.0 °F 77% 29.96 in 8.0 mi SW 11.5 mph - N/A   Mostly Cloudy
9:50 AM 84.2 °F 89.6 °F 71.6 °F 66% 29.96 in 10.0 mi SW 15.0 mph - N/A   Mostly Cloudy
9:54 AM 84.0 °F 89.6 °F 72.0 °F 67% 29.96 in 10.0 mi SW 11.5 mph - N/A   Mostly Cloudy
10:54 AM 86.0 °F 90.1 °F 69.1 °F 57% 29.96 in 10.0 mi WSW 11.5 mph - N/A   Mostly Cloudy
11:54 AM 87.1 °F 91.3 °F 69.1 °F 55% 29.95 in 10.0 mi WSW 16.1 mph - N/A   Mostly Cloudy
12:47 PM 86.0 °F 89.4 °F 68.0 °F 55% 29.96 in 6.0 mi WNW 17.3 mph 23.0 mph 0.00 in Rain Light Rain
12:50 PM 84.2 °F 88.4 °F 69.8 °F 62% 29.96 in 2.0 mi West 20.7 mph 26.5 mph 0.00 in Rain Light Rain
12:51 PM 84.2 °F 89.6 °F 71.6 °F 66% 29.96 in 1.5 mi West 20.7 mph 26.5 mph 0.00 in Rain Heavy Rain
12:54 PM 81.0 °F 84.9 °F 71.1 °F 72% 29.96 in 8.0 mi West 19.6 mph 28.8 mph 0.00 in Rain Light Rain
1:08 PM 80.6 °F 84.6 °F 71.6 °F 74% 29.96 in 10.0 mi West 12.7 mph - 0.04 in   Overcast
1:12 PM 82.4 °F 87.2 °F 71.6 °F 70% 29.95 in 10.0 mi West 11.5 mph - 0.04 in Thunderstorm Thunderstorm
1:40 PM 80.6 °F 84.6 °F 71.6 °F 74% 29.94 in 10.0 mi SSW 12.7 mph - 0.05 in Rain Light Rain
1:54 PM 79.0 °F - 73.0 °F 82% 29.94 in 10.0 mi SW 10.4 mph - 0.05 in   Overcast
2:54 PM 86.0 °F 92.2 °F 72.0 °F 63% 29.89 in 10.0 mi West 10.4 mph 18.4 mph N/A   Mostly Cloudy
3:54 PM 88.0 °F 92.1 °F 69.1 °F 53% 29.89 in 10.0 mi WSW 16.1 mph 23.0 mph N/A   Mostly Cloudy
4:54 PM 88.0 °F 94.7 °F 72.0 °F 59% 29.86 in 10.0 mi SW 11.5 mph - N/A   Scattered Clouds
5:54 PM 89.1 °F 94.1 °F 70.0 °F 53% 29.84 in 10.0 mi SW 13.8 mph - N/A   Scattered Clouds
6:54 PM 88.0 °F 93.8 °F 71.1 °F 57% 29.86 in 10.0 mi SW 12.7 mph - N/A   Mostly Cloudy
7:54 PM 86.0 °F 91.5 °F 71.1 °F 61% 29.87 in 10.0 mi SW 10.4 mph - N/A   Overcast
8:54 PM 84.9 °F 90.1 °F 71.1 °F 63% 29.88 in 10.0 mi SW 11.5 mph - N/A   Overcast
9:54 PM 84.0 °F 89.6 °F 72.0 °F 67% 29.88 in 10.0 mi SW 10.4 mph - N/A   Overcast
10:54 PM 82.9 °F 88.8 °F 73.0 °F 72% 29.86 in 10.0 mi SW 12.7 mph - N/A   Overcast
11:54 PM 81.0 °F 85.8 °F 73.0 °F 77% 29.85 in 10.0 mi South 8.1 mph - N/A   Overcast